Location: Kaiser
(34.0939°N, 117.4889°W)
Time: 03:46:42
(UTC+00:00)

Abrixas rocket - Pass Details

Date: 29 October 2020
Orbit: 322 x 325 km, 48.4° (Epoch: 26 November)

Event Time Altitude Azimuth Distance (km) Brightness Sun altitude
Exits shadow 12:34:30 16° 14° (NNE) 1,012 4.3 -19.8°
Maximum altitude 12:35:00 16° 27° (NNE) 989 4.4 -19.7°
Drops below altitude 10° 12:36:54 10° 68° (ENE) 1,278 5.7 -19.3°
Sets 12:39:24 0° 92° (E) 2,117 7.5 -18.8°
